Year,Month,Day,Hour,Minute,Value (Times are PST for temperature in C)
2015,08,16,00,00,14.40
2015,08,16,00,01,14.40
2015,08,16,00,02,14.40
2015,08,16,00,03,14.40
2015,08,16,00,04,14.40
2015,08,16,00,05,14.40
2015,08,16,00,06,14.40
2015,08,16,00,07,14.40
2015,08,16,00,08,14.40
2015,08,16,00,09,14.40
2015,08,16,00,10,14.50
2015,08,16,00,11,14.50
2015,08,16,00,12,14.50
2015,08,16,00,13,14.50
2015,08,16,00,14,14.50
2015,08,16,00,15,14.50
2015,08,16,00,16,14.50
2015,08,16,00,17,14.50
2015,08,16,00,18,14.60
2015,08,16,00,19,14.60
2015,08,16,00,20,14.60
2015,08,16,00,21,14.60
2015,08,16,00,22,14.60
2015,08,16,00,23,14.60
2015,08,16,00,24,14.60
2015,08,16,00,25,14.60
2015,08,16,00,26,14.50
2015,08,16,00,27,14.50
2015,08,16,00,28,14.50
2015,08,16,00,29,14.40
2015,08,16,00,30,14.40
2015,08,16,00,31,14.40
2015,08,16,00,32,14.40
2015,08,16,00,33,14.40
2015,08,16,00,34,14.40
2015,08,16,00,35,14.40
2015,08,16,00,36,14.40
2015,08,16,00,37,14.40
2015,08,16,00,38,14.40
2015,08,16,00,39,14.30
2015,08,16,00,40,14.30
2015,08,16,00,41,14.30
2015,08,16,00,42,14.30
2015,08,16,00,43,14.30
2015,08,16,00,44,14.20
2015,08,16,00,45,14.20
2015,08,16,00,46,14.20
2015,08,16,00,47,14.20
2015,08,16,00,48,14.20
2015,08,16,00,49,14.10
2015,08,16,00,50,14.10
2015,08,16,00,51,14.10
2015,08,16,00,52,14.10
2015,08,16,00,53,14.10
2015,08,16,00,54,14.10
2015,08,16,00,55,14.00
2015,08,16,00,56,14.00
2015,08,16,00,57,14.00
2015,08,16,00,58,13.90
2015,08,16,00,59,13.90
2015,08,16,01,00,13.90
2015,08,16,01,01,13.90
2015,08,16,01,02,13.90
2015,08,16,01,03,13.90
2015,08,16,01,04,13.90
2015,08,16,01,05,13.80
2015,08,16,01,06,13.80
2015,08,16,01,07,13.80
2015,08,16,01,08,13.80
2015,08,16,01,09,13.80
2015,08,16,01,10,13.80
2015,08,16,01,11,13.80
2015,08,16,01,12,13.80
2015,08,16,01,13,13.80
2015,08,16,01,14,13.80
2015,08,16,01,15,13.80
2015,08,16,01,16,13.80
2015,08,16,01,17,13.70
2015,08,16,01,18,13.70
2015,08,16,01,19,13.70
2015,08,16,01,20,13.70
2015,08,16,01,21,13.70
2015,08,16,01,22,13.60
2015,08,16,01,23,13.60
2015,08,16,01,24,13.60
2015,08,16,01,25,13.60
2015,08,16,01,26,13.50
2015,08,16,01,27,13.50
2015,08,16,01,28,13.50
2015,08,16,01,29,13.50
2015,08,16,01,30,13.40
2015,08,16,01,31,13.40
2015,08,16,01,32,13.40
2015,08,16,01,33,13.40
2015,08,16,01,34,13.40
2015,08,16,01,35,13.40
2015,08,16,01,36,13.40
2015,08,16,01,37,13.30
2015,08,16,01,38,13.30
2015,08,16,01,39,13.30
2015,08,16,01,40,13.30
2015,08,16,01,41,13.30
2015,08,16,01,42,13.30
2015,08,16,01,43,13.20
2015,08,16,01,44,13.20
2015,08,16,01,45,13.20
2015,08,16,01,46,13.20
2015,08,16,01,47,13.20
2015,08,16,01,48,13.10
2015,08,16,01,49,13.10
2015,08,16,01,50,13.10
2015,08,16,01,51,13.10
2015,08,16,01,52,13.10
2015,08,16,01,53,13.00
2015,08,16,01,54,13.00
2015,08,16,01,55,13.00
2015,08,16,01,56,12.90
2015,08,16,01,57,12.90
2015,08,16,01,58,12.90
2015,08,16,01,59,12.90
2015,08,16,02,00,12.90
2015,08,16,02,01,12.90
2015,08,16,02,02,12.80
2015,08,16,02,03,12.80
2015,08,16,02,04,12.80
2015,08,16,02,05,12.80
2015,08,16,02,06,12.80
2015,08,16,02,07,12.80
2015,08,16,02,08,12.80
2015,08,16,02,09,12.70
2015,08,16,02,10,12.70
2015,08,16,02,11,12.70
2015,08,16,02,12,12.70
2015,08,16,02,13,12.70
2015,08,16,02,14,12.70
2015,08,16,02,15,12.70
2015,08,16,02,16,12.70
2015,08,16,02,17,12.70
2015,08,16,02,18,12.70
2015,08,16,02,19,12.70
2015,08,16,02,20,12.70
2015,08,16,02,21,12.60
2015,08,16,02,22,12.60
2015,08,16,02,23,12.60
2015,08,16,02,24,12.60
2015,08,16,02,25,12.60
2015,08,16,02,26,12.60
2015,08,16,02,27,12.60
2015,08,16,02,28,12.60
2015,08,16,02,29,12.60
2015,08,16,02,30,12.60
2015,08,16,02,31,12.50
2015,08,16,02,32,12.50
2015,08,16,02,33,12.50
2015,08,16,02,34,12.50
2015,08,16,02,35,12.40
2015,08,16,02,36,12.40
2015,08,16,02,37,12.40
2015,08,16,02,38,12.40
2015,08,16,02,39,12.40
2015,08,16,02,40,12.40
2015,08,16,02,41,12.40
2015,08,16,02,42,12.40
2015,08,16,02,43,12.40
2015,08,16,02,44,12.40
2015,08,16,02,45,12.40
2015,08,16,02,46,12.40
2015,08,16,02,47,12.30
2015,08,16,02,48,12.30
2015,08,16,02,49,12.30
2015,08,16,02,50,12.30
2015,08,16,02,51,12.30
2015,08,16,02,52,12.30
2015,08,16,02,53,12.30
2015,08,16,02,54,12.30
2015,08,16,02,55,12.30
2015,08,16,02,56,12.30
2015,08,16,02,57,12.30
2015,08,16,02,58,12.20
2015,08,16,02,59,12.20
2015,08,16,03,00,12.20
2015,08,16,03,01,12.20
2015,08,16,03,02,12.20
2015,08,16,03,03,12.20
2015,08,16,03,04,12.20
2015,08,16,03,05,12.20
2015,08,16,03,06,12.20
2015,08,16,03,07,12.20
2015,08,16,03,08,12.20
2015,08,16,03,09,12.20
2015,08,16,03,10,12.20
2015,08,16,03,11,12.20
2015,08,16,03,12,12.20
2015,08,16,03,13,12.10
2015,08,16,03,14,12.10
2015,08,16,03,15,12.10
2015,08,16,03,16,12.10
2015,08,16,03,17,12.10
2015,08,16,03,18,12.10
2015,08,16,03,19,12.10
2015,08,16,03,20,12.10
2015,08,16,03,21,12.10
2015,08,16,03,22,12.10
2015,08,16,03,23,12.10
2015,08,16,03,24,12.10
2015,08,16,03,25,12.10
2015,08,16,03,26,12.10
2015,08,16,03,27,12.10
2015,08,16,03,28,12.10
2015,08,16,03,29,12.10
2015,08,16,03,30,12.10
2015,08,16,03,31,12.10
2015,08,16,03,32,12.00
2015,08,16,03,33,12.00
2015,08,16,03,34,12.00
2015,08,16,03,35,12.00
2015,08,16,03,36,12.00
2015,08,16,03,37,11.90
2015,08,16,03,38,11.90
2015,08,16,03,39,11.90
2015,08,16,03,40,11.90
2015,08,16,03,41,11.90
2015,08,16,03,42,11.90
2015,08,16,03,43,11.90
2015,08,16,03,44,11.90
2015,08,16,03,45,11.80
2015,08,16,03,46,11.80
2015,08,16,03,47,11.80
2015,08,16,03,48,11.80
2015,08,16,03,49,11.80
2015,08,16,03,50,11.80
2015,08,16,03,51,11.80
2015,08,16,03,52,11.80
2015,08,16,03,53,11.80
2015,08,16,03,54,11.80
2015,08,16,03,55,11.80
2015,08,16,03,56,11.80
2015,08,16,03,57,11.80
2015,08,16,03,58,11.80
2015,08,16,03,59,11.80
2015,08,16,04,00,11.80
2015,08,16,04,01,11.80
2015,08,16,04,02,11.70
2015,08,16,04,03,11.70
2015,08,16,04,04,11.70
2015,08,16,04,05,11.70
2015,08,16,04,06,11.70
2015,08,16,04,07,11.70
2015,08,16,04,08,11.70
2015,08,16,04,09,11.70
2015,08,16,04,10,11.70
2015,08,16,04,11,11.70
2015,08,16,04,12,11.70
2015,08,16,04,13,11.70
2015,08,16,04,14,11.70
2015,08,16,04,15,11.70
2015,08,16,04,16,11.80
2015,08,16,04,17,11.70
2015,08,16,04,18,11.80
2015,08,16,04,19,11.80
2015,08,16,04,20,11.80
2015,08,16,04,21,11.80
2015,08,16,04,22,11.80
2015,08,16,04,23,11.80
2015,08,16,04,24,11.80
2015,08,16,04,25,11.80
2015,08,16,04,26,11.80
2015,08,16,04,27,11.80
2015,08,16,04,28,11.80
2015,08,16,04,29,11.70
2015,08,16,04,30,11.70
2015,08,16,04,31,11.70
2015,08,16,04,32,11.70
2015,08,16,04,33,11.70
2015,08,16,04,34,11.70
2015,08,16,04,35,11.70
2015,08,16,04,36,11.70
2015,08,16,04,37,11.70
2015,08,16,04,38,11.70
2015,08,16,04,39,11.70
2015,08,16,04,40,11.70
2015,08,16,04,41,11.70
2015,08,16,04,42,11.70
2015,08,16,04,43,11.70
2015,08,16,04,44,11.70
2015,08,16,04,45,11.70
2015,08,16,04,46,11.70
2015,08,16,04,47,11.70
2015,08,16,04,48,11.70
2015,08,16,04,49,11.70
2015,08,16,04,50,11.70
2015,08,16,04,51,11.70
2015,08,16,04,52,11.70
2015,08,16,04,53,11.70
2015,08,16,04,54,11.70
2015,08,16,04,55,11.70
2015,08,16,04,56,11.70
2015,08,16,04,57,11.70
2015,08,16,04,58,11.70
2015,08,16,04,59,11.70
2015,08,16,05,00,11.70
2015,08,16,05,01,11.70
2015,08,16,05,02,11.70
2015,08,16,05,03,11.70
2015,08,16,05,04,11.70
2015,08,16,05,05,11.70
2015,08,16,05,06,11.70
2015,08,16,05,07,11.70
2015,08,16,05,08,11.70
2015,08,16,05,09,11.70
2015,08,16,05,10,11.70
2015,08,16,05,11,11.70
2015,08,16,05,12,11.70
2015,08,16,05,13,11.70
2015,08,16,05,14,11.70
2015,08,16,05,15,11.70
2015,08,16,05,16,11.80
2015,08,16,05,17,11.80
2015,08,16,05,18,11.80
2015,08,16,05,19,11.80
2015,08,16,05,20,11.80
2015,08,16,05,21,11.80
2015,08,16,05,22,11.80
2015,08,16,05,23,11.80
2015,08,16,05,24,11.80
2015,08,16,05,25,11.70
2015,08,16,05,26,11.70
2015,08,16,05,27,11.70
2015,08,16,05,28,11.70
2015,08,16,05,29,11.70
2015,08,16,05,30,11.70
2015,08,16,05,31,11.70
2015,08,16,05,32,11.70
2015,08,16,05,33,11.70
2015,08,16,05,34,11.70
2015,08,16,05,35,11.70
2015,08,16,05,36,11.70
2015,08,16,05,37,11.70
2015,08,16,05,38,11.70
2015,08,16,05,39,11.70
2015,08,16,05,40,11.70
2015,08,16,05,41,11.70
2015,08,16,05,42,11.70
2015,08,16,05,43,11.60
2015,08,16,05,44,11.60
2015,08,16,05,45,11.60
2015,08,16,05,46,11.60
2015,08,16,05,47,11.60
2015,08,16,05,48,11.60
2015,08,16,05,49,11.60
2015,08,16,05,50,11.60
2015,08,16,05,51,11.60
2015,08,16,05,52,11.60
2015,08,16,05,53,11.60
2015,08,16,05,54,11.60
2015,08,16,05,55,11.60
2015,08,16,05,56,11.60
2015,08,16,05,57,11.60
2015,08,16,05,58,11.60
2015,08,16,05,59,11.60
2015,08,16,06,00,11.60
2015,08,16,06,01,11.50
2015,08,16,06,02,11.50
2015,08,16,06,03,11.50
2015,08,16,06,04,11.50
2015,08,16,06,05,11.50
2015,08,16,06,06,11.50
2015,08,16,06,07,11.50
2015,08,16,06,08,11.50
2015,08,16,06,09,11.50
2015,08,16,06,10,11.60
2015,08,16,06,11,11.60
2015,08,16,06,12,11.60
2015,08,16,06,13,11.60
2015,08,16,06,14,11.60
2015,08,16,06,15,11.60
2015,08,16,06,16,11.60
2015,08,16,06,17,11.60
2015,08,16,06,18,11.60
2015,08,16,06,19,11.60
2015,08,16,06,20,11.60
2015,08,16,06,21,11.60
2015,08,16,06,22,11.60
2015,08,16,06,23,11.60
2015,08,16,06,24,11.60
2015,08,16,06,25,11.60
2015,08,16,06,26,11.60
2015,08,16,06,27,11.60
2015,08,16,06,28,11.60
2015,08,16,06,29,11.60
2015,08,16,06,30,11.60
2015,08,16,06,31,11.70
2015,08,16,06,32,11.70
2015,08,16,06,33,11.70
2015,08,16,06,34,11.70
2015,08,16,06,35,11.70
2015,08,16,06,36,11.70
2015,08,16,06,37,11.70
2015,08,16,06,38,11.70
2015,08,16,06,39,11.70
2015,08,16,06,40,11.70
2015,08,16,06,41,11.70
2015,08,16,06,42,11.80
2015,08,16,06,43,11.80
2015,08,16,06,44,11.80
2015,08,16,06,45,11.80
2015,08,16,06,46,11.90
2015,08,16,06,47,11.90
2015,08,16,06,48,11.90
2015,08,16,06,49,11.90
2015,08,16,06,50,12.00
2015,08,16,06,51,12.00
2015,08,16,06,52,12.00
2015,08,16,06,53,12.10
2015,08,16,06,54,12.10
2015,08,16,06,55,12.10
2015,08,16,06,56,12.10
2015,08,16,06,57,12.10
2015,08,16,06,58,12.20
2015,08,16,06,59,12.20
2015,08,16,07,00,12.20
2015,08,16,07,01,12.20
2015,08,16,07,02,12.30
2015,08,16,07,03,12.30
2015,08,16,07,04,12.30
2015,08,16,07,05,12.30
2015,08,16,07,06,12.30
2015,08,16,07,07,12.30
2015,08,16,07,08,12.40
2015,08,16,07,09,12.40
2015,08,16,07,10,12.40
2015,08,16,07,11,12.40
2015,08,16,07,12,12.40
2015,08,16,07,13,12.40
2015,08,16,07,14,12.40
2015,08,16,07,15,12.40
2015,08,16,07,16,12.50
2015,08,16,07,17,12.50
2015,08,16,07,18,12.50
2015,08,16,07,19,12.50
2015,08,16,07,20,12.50
2015,08,16,07,21,12.50
2015,08,16,07,22,12.50
2015,08,16,07,23,12.50
2015,08,16,07,24,12.50
2015,08,16,07,25,12.50
2015,08,16,07,26,12.50
2015,08,16,07,27,12.50
2015,08,16,07,28,12.50
2015,08,16,07,29,12.50
2015,08,16,07,30,12.50
2015,08,16,07,31,12.50
2015,08,16,07,32,12.50
2015,08,16,07,33,12.50
2015,08,16,07,34,12.60
2015,08,16,07,35,12.60
2015,08,16,07,36,12.60
2015,08,16,07,37,12.60
2015,08,16,07,38,12.60
2015,08,16,07,39,12.60
2015,08,16,07,40,12.60
2015,08,16,07,41,12.60
2015,08,16,07,42,12.60
2015,08,16,07,43,12.60
2015,08,16,07,44,12.60
2015,08,16,07,45,12.60
2015,08,16,07,46,12.70
2015,08,16,07,47,12.70
2015,08,16,07,48,12.70
2015,08,16,07,49,12.70
2015,08,16,07,50,12.70
2015,08,16,07,51,12.70
2015,08,16,07,52,12.70
2015,08,16,07,53,12.70
2015,08,16,07,54,12.80
2015,08,16,07,55,12.80
2015,08,16,07,56,12.80
2015,08,16,07,57,12.90
2015,08,16,07,58,12.90
2015,08,16,07,59,13.00
2015,08,16,08,00,13.00
2015,08,16,08,01,13.00
2015,08,16,08,02,13.10
2015,08,16,08,03,13.10
2015,08,16,08,04,13.10
2015,08,16,08,05,13.10
2015,08,16,08,06,13.20
2015,08,16,08,07,13.20
2015,08,16,08,08,13.20
2015,08,16,08,09,13.30
2015,08,16,08,10,13.30
2015,08,16,08,11,13.30
2015,08,16,08,12,13.40
2015,08,16,08,13,13.40
2015,08,16,08,14,13.50
2015,08,16,08,15,13.50
2015,08,16,08,16,13.60
2015,08,16,08,17,13.60
2015,08,16,08,18,13.60
2015,08,16,08,19,13.60
2015,08,16,08,20,13.70
2015,08,16,08,21,13.70
2015,08,16,08,22,13.80
2015,08,16,08,23,13.80
2015,08,16,08,24,13.90
2015,08,16,08,25,13.90
2015,08,16,08,26,14.00
2015,08,16,08,27,14.10
2015,08,16,08,28,14.10
2015,08,16,08,29,14.20
2015,08,16,08,30,14.20
2015,08,16,08,31,14.30
2015,08,16,08,32,14.30
2015,08,16,08,33,14.40
2015,08,16,08,34,14.40
2015,08,16,08,35,14.50
2015,08,16,08,36,14.60
2015,08,16,08,37,14.60
2015,08,16,08,38,14.70
2015,08,16,08,39,14.80
2015,08,16,08,40,14.80
2015,08,16,08,41,14.90
2015,08,16,08,42,15.00
2015,08,16,08,43,15.00
2015,08,16,08,44,15.10
2015,08,16,08,45,15.20
2015,08,16,08,46,15.30
2015,08,16,08,47,15.40
2015,08,16,08,48,15.50
2015,08,16,08,49,15.50
2015,08,16,08,50,15.60
2015,08,16,08,51,15.70
2015,08,16,08,52,15.70
2015,08,16,08,53,15.80
2015,08,16,08,54,15.80
2015,08,16,08,55,15.90
2015,08,16,08,56,15.90
2015,08,16,08,57,16.00
2015,08,16,08,58,16.10
2015,08,16,08,59,16.10
2015,08,16,09,00,16.10
2015,08,16,09,01,16.20
2015,08,16,09,02,16.20
2015,08,16,09,03,16.30
2015,08,16,09,04,16.30
2015,08,16,09,05,16.30
2015,08,16,09,06,16.40
2015,08,16,09,07,16.40
2015,08,16,09,08,16.40
2015,08,16,09,09,16.50
2015,08,16,09,10,16.50
2015,08,16,09,11,16.60
2015,08,16,09,12,16.60
2015,08,16,09,13,16.70
2015,08,16,09,14,16.70
2015,08,16,09,15,16.80
2015,08,16,09,16,16.80
2015,08,16,09,17,16.90
2015,08,16,09,18,16.90
2015,08,16,09,19,17.00
2015,08,16,09,20,17.10
2015,08,16,09,21,17.10
2015,08,16,09,22,17.20
2015,08,16,09,23,17.20
2015,08,16,09,24,17.20
2015,08,16,09,25,17.30
2015,08,16,09,26,17.30
2015,08,16,09,27,17.30
2015,08,16,09,28,17.30
2015,08,16,09,29,17.30
2015,08,16,09,30,17.30
2015,08,16,09,31,17.30
2015,08,16,09,32,17.30
2015,08,16,09,33,17.30
2015,08,16,09,34,17.30
2015,08,16,09,35,17.30
2015,08,16,09,36,17.30
2015,08,16,09,37,17.30
2015,08,16,09,38,17.30
2015,08,16,09,39,17.20
2015,08,16,09,40,17.20
2015,08,16,09,41,17.20
2015,08,16,09,42,17.20
2015,08,16,09,43,17.20
2015,08,16,09,44,17.20
2015,08,16,09,45,17.20
2015,08,16,09,46,17.20
2015,08,16,09,47,17.20
2015,08,16,09,48,17.30
2015,08,16,09,49,17.30
2015,08,16,09,50,17.40
2015,08,16,09,51,17.50
2015,08,16,09,52,17.60
2015,08,16,09,53,17.70
2015,08,16,09,54,17.70
2015,08,16,09,55,17.80
2015,08,16,09,56,17.90
2015,08,16,09,57,18.00
2015,08,16,09,58,18.10
2015,08,16,09,59,18.20
2015,08,16,10,00,18.30
2015,08,16,10,01,18.40
2015,08,16,10,02,18.40
2015,08,16,10,03,18.50
2015,08,16,10,04,18.60
2015,08,16,10,05,18.60
2015,08,16,10,06,18.70
2015,08,16,10,07,18.80
2015,08,16,10,08,18.80
2015,08,16,10,09,18.80
2015,08,16,10,10,18.80
2015,08,16,10,11,18.90
2015,08,16,10,12,18.90
2015,08,16,10,13,18.80
2015,08,16,10,14,18.70
2015,08,16,10,15,18.60
2015,08,16,10,16,18.50
2015,08,16,10,17,18.40
2015,08,16,10,18,18.40
2015,08,16,10,19,18.40
2015,08,16,10,20,18.40
2015,08,16,10,21,18.40
2015,08,16,10,22,18.40
2015,08,16,10,23,18.40
2015,08,16,10,24,18.40
2015,08,16,10,25,18.40
2015,08,16,10,26,18.50
2015,08,16,10,27,18.60
2015,08,16,10,28,18.60
2015,08,16,10,29,18.60
2015,08,16,10,30,18.60
2015,08,16,10,31,18.70
2015,08,16,10,32,18.70
2015,08,16,10,33,18.70
2015,08,16,10,34,18.80
2015,08,16,10,35,18.80
2015,08,16,10,36,18.80
2015,08,16,10,37,18.90
2015,08,16,10,38,18.90
2015,08,16,10,39,19.00
2015,08,16,10,40,19.00
2015,08,16,10,41,19.10
2015,08,16,10,42,19.10
2015,08,16,10,43,19.20
2015,08,16,10,44,19.20
2015,08,16,10,45,19.30
2015,08,16,10,46,19.30
2015,08,16,10,47,19.40
2015,08,16,10,48,19.40
2015,08,16,10,49,19.40
2015,08,16,10,50,19.50
2015,08,16,10,51,19.50
2015,08,16,10,52,19.60
2015,08,16,10,53,19.70
2015,08,16,10,54,19.80
2015,08,16,10,55,19.90
2015,08,16,10,56,19.90
2015,08,16,10,57,19.90
2015,08,16,10,58,19.90
2015,08,16,10,59,20.00
2015,08,16,11,00,20.00
2015,08,16,11,01,20.00
2015,08,16,11,02,19.90
2015,08,16,11,03,19.90
2015,08,16,11,04,19.90
2015,08,16,11,05,19.90
2015,08,16,11,06,19.90
2015,08,16,11,07,19.80
2015,08,16,11,08,19.80
2015,08,16,11,09,19.80
2015,08,16,11,10,19.80
2015,08,16,11,11,19.80
2015,08,16,11,12,19.90
2015,08,16,11,13,19.90
2015,08,16,11,14,19.90
2015,08,16,11,15,20.00
2015,08,16,11,16,20.00
2015,08,16,11,17,20.10
2015,08,16,11,18,20.10
2015,08,16,11,19,20.10
2015,08,16,11,20,20.10
2015,08,16,11,21,20.00
2015,08,16,11,22,20.00
2015,08,16,11,23,19.90
2015,08,16,11,24,19.90
2015,08,16,11,25,19.90
2015,08,16,11,26,20.00
2015,08,16,11,27,20.00
2015,08,16,11,28,20.00
2015,08,16,11,29,20.00
2015,08,16,11,30,20.00
2015,08,16,11,31,20.00
2015,08,16,11,32,20.00
2015,08,16,11,33,20.00
2015,08,16,11,34,20.00
2015,08,16,11,35,20.00
2015,08,16,11,36,20.10
2015,08,16,11,37,20.10
2015,08,16,11,38,20.10
2015,08,16,11,39,20.10
2015,08,16,11,40,20.20
2015,08,16,11,41,20.30
2015,08,16,11,42,20.40
2015,08,16,11,43,20.50
2015,08,16,11,44,20.50
2015,08,16,11,45,20.60
2015,08,16,11,46,20.70
2015,08,16,11,47,20.80
2015,08,16,11,48,20.90
2015,08,16,11,49,20.90
2015,08,16,11,50,21.00
2015,08,16,11,51,21.00
2015,08,16,11,52,21.10
2015,08,16,11,53,21.20
2015,08,16,11,54,21.20
2015,08,16,11,55,21.30
2015,08,16,11,56,21.30
2015,08,16,11,57,21.30
2015,08,16,11,58,21.30
2015,08,16,11,59,21.20
2015,08,16,12,00,21.10
2015,08,16,12,01,21.10
2015,08,16,12,02,21.10
2015,08,16,12,03,21.10
2015,08,16,12,04,21.10
2015,08,16,12,05,21.20
2015,08,16,12,06,21.20
2015,08,16,12,07,21.30
2015,08,16,12,08,21.30
2015,08,16,12,09,21.20
2015,08,16,12,10,21.20
2015,08,16,12,11,21.10
2015,08,16,12,12,21.00
2015,08,16,12,13,20.90
2015,08,16,12,14,20.90
2015,08,16,12,15,20.90
2015,08,16,12,16,20.90
2015,08,16,12,17,20.90
2015,08,16,12,18,20.90
2015,08,16,12,19,20.90
2015,08,16,12,20,20.90
2015,08,16,12,21,20.80
2015,08,16,12,22,20.80
2015,08,16,12,23,20.80
2015,08,16,12,24,20.80
2015,08,16,12,25,20.70
2015,08,16,12,26,20.70
2015,08,16,12,27,20.70
2015,08,16,12,28,20.80
2015,08,16,12,29,20.80
2015,08,16,12,30,20.80
2015,08,16,12,31,20.80
2015,08,16,12,32,20.80
2015,08,16,12,33,20.70
2015,08,16,12,34,20.60
2015,08,16,12,35,20.50
2015,08,16,12,36,20.40
2015,08,16,12,37,20.30
2015,08,16,12,38,20.20
2015,08,16,12,39,20.10
2015,08,16,12,40,20.00
2015,08,16,12,41,20.00
2015,08,16,12,42,20.00
2015,08,16,12,43,20.00
2015,08,16,12,44,20.10
2015,08,16,12,45,20.10
2015,08,16,12,46,20.20
2015,08,16,12,47,20.20
2015,08,16,12,48,20.20
2015,08,16,12,49,20.30
2015,08,16,12,50,20.30
2015,08,16,12,51,20.40
2015,08,16,12,52,20.40
2015,08,16,12,53,20.40
2015,08,16,12,54,20.50
2015,08,16,12,55,20.50
2015,08,16,12,56,20.50
2015,08,16,12,57,20.50
2015,08,16,12,58,20.50
2015,08,16,12,59,20.50
2015,08,16,13,00,20.50
2015,08,16,13,01,20.50
2015,08,16,13,02,20.60
2015,08,16,13,03,20.60
2015,08,16,13,04,20.60
2015,08,16,13,05,20.50
2015,08,16,13,06,20.40
2015,08,16,13,07,20.40
2015,08,16,13,08,20.30
2015,08,16,13,09,20.30
2015,08,16,13,10,20.40
2015,08,16,13,11,20.40
2015,08,16,13,12,20.50
2015,08,16,13,13,20.60
2015,08,16,13,14,20.70
2015,08,16,13,15,20.70
2015,08,16,13,16,20.70
2015,08,16,13,17,20.70
2015,08,16,13,18,20.70
2015,08,16,13,19,20.60
2015,08,16,13,20,20.60
2015,08,16,13,21,20.60
2015,08,16,13,22,20.60
2015,08,16,13,23,20.60
2015,08,16,13,24,20.60
2015,08,16,13,25,20.60
2015,08,16,13,26,20.60
2015,08,16,13,27,20.60
2015,08,16,13,28,20.60
2015,08,16,13,29,20.70
2015,08,16,13,30,20.70
2015,08,16,13,31,20.70
2015,08,16,13,32,20.70
2015,08,16,13,33,20.70
2015,08,16,13,34,20.70
2015,08,16,13,35,20.70
2015,08,16,13,36,20.70
2015,08,16,13,37,20.60
2015,08,16,13,38,20.60
2015,08,16,13,39,20.60
2015,08,16,13,40,20.70
2015,08,16,13,41,20.70
2015,08,16,13,42,20.60
2015,08,16,13,43,20.60
2015,08,16,13,44,20.60
2015,08,16,13,45,20.60
2015,08,16,13,46,20.70
2015,08,16,13,47,20.70
2015,08,16,13,48,20.70
2015,08,16,13,49,20.80
2015,08,16,13,50,20.90
2015,08,16,13,51,20.90
2015,08,16,13,52,21.00
2015,08,16,13,53,21.00
2015,08,16,13,54,21.10
2015,08,16,13,55,21.10
2015,08,16,13,56,21.10
2015,08,16,13,57,21.10
2015,08,16,13,58,21.10
2015,08,16,13,59,21.10
2015,08,16,14,00,21.10
2015,08,16,14,01,21.10
2015,08,16,14,02,21.20
2015,08,16,14,03,21.20
2015,08,16,14,04,21.30
2015,08,16,14,05,21.40
2015,08,16,14,06,21.50
2015,08,16,14,07,21.60
2015,08,16,14,08,21.70
2015,08,16,14,09,21.70
2015,08,16,14,10,21.70
2015,08,16,14,11,21.70
2015,08,16,14,12,21.80
2015,08,16,14,13,21.80
2015,08,16,14,14,21.90
2015,08,16,14,15,21.90
2015,08,16,14,16,21.90
2015,08,16,14,17,21.90
2015,08,16,14,18,21.80
2015,08,16,14,19,21.80
2015,08,16,14,20,21.80
2015,08,16,14,21,21.80
2015,08,16,14,22,21.80
2015,08,16,14,23,21.80
2015,08,16,14,24,21.80
2015,08,16,14,25,21.90
2015,08,16,14,26,22.00
2015,08,16,14,27,22.20
2015,08,16,14,28,22.20
2015,08,16,14,29,22.10
2015,08,16,14,30,22.00
2015,08,16,14,31,21.80
2015,08,16,14,32,21.70
2015,08,16,14,33,21.60
2015,08,16,14,34,21.60
2015,08,16,14,35,21.60
2015,08,16,14,36,21.70
2015,08,16,14,37,21.70
2015,08,16,14,38,21.70
2015,08,16,14,39,21.70
2015,08,16,14,40,21.70
2015,08,16,14,41,21.70
2015,08,16,14,42,21.70
2015,08,16,14,43,21.60
2015,08,16,14,44,21.60
2015,08,16,14,45,21.60
2015,08,16,14,46,21.60
2015,08,16,14,47,21.60
2015,08,16,14,48,21.60
2015,08,16,14,49,21.70
2015,08,16,14,50,21.70
2015,08,16,14,51,21.80
2015,08,16,14,52,21.80
2015,08,16,14,53,21.80
2015,08,16,14,54,21.80
2015,08,16,14,55,21.80
2015,08,16,14,56,21.80
2015,08,16,14,57,21.80
2015,08,16,14,58,21.80
2015,08,16,14,59,21.90
2015,08,16,15,00,21.90
2015,08,16,15,01,21.90
2015,08,16,15,02,21.90
2015,08,16,15,03,21.80
2015,08,16,15,04,21.70
2015,08,16,15,05,21.60
2015,08,16,15,06,21.50
2015,08,16,15,07,21.50
2015,08,16,15,08,21.40
2015,08,16,15,09,21.40
2015,08,16,15,10,21.40
2015,08,16,15,11,21.40
2015,08,16,15,12,21.40
2015,08,16,15,13,21.40
2015,08,16,15,14,21.40
2015,08,16,15,15,21.40
2015,08,16,15,16,21.50
2015,08,16,15,17,21.60
2015,08,16,15,18,21.70
2015,08,16,15,19,21.80
2015,08,16,15,20,21.80
2015,08,16,15,21,21.90
2015,08,16,15,22,21.90
2015,08,16,15,23,22.00
2015,08,16,15,24,22.00
2015,08,16,15,25,22.00
2015,08,16,15,26,22.00
2015,08,16,15,27,22.00
2015,08,16,15,28,22.10
2015,08,16,15,29,22.10
2015,08,16,15,30,22.10
2015,08,16,15,31,22.00
2015,08,16,15,32,22.00
2015,08,16,15,33,21.90
2015,08,16,15,34,21.90
2015,08,16,15,35,21.80
2015,08,16,15,36,21.80
2015,08,16,15,37,21.70
2015,08,16,15,38,21.70
2015,08,16,15,39,21.70
2015,08,16,15,40,21.70
2015,08,16,15,41,21.70
2015,08,16,15,42,21.70
2015,08,16,15,43,21.60
2015,08,16,15,44,21.60
2015,08,16,15,45,21.60
2015,08,16,15,46,21.60
2015,08,16,15,47,21.60
2015,08,16,15,48,21.60
2015,08,16,15,49,21.60
2015,08,16,15,50,21.60
2015,08,16,15,51,21.60
2015,08,16,15,52,21.60
2015,08,16,15,53,21.60
2015,08,16,15,54,21.70
2015,08,16,15,55,21.70
2015,08,16,15,56,21.70
2015,08,16,15,57,21.70
2015,08,16,15,58,21.70
2015,08,16,15,59,21.70
2015,08,16,16,00,21.80
2015,08,16,16,01,21.80
2015,08,16,16,02,21.80
2015,08,16,16,03,21.80
2015,08,16,16,04,21.80
2015,08,16,16,05,21.70
2015,08,16,16,06,21.70
2015,08,16,16,07,21.60
2015,08,16,16,08,21.60
2015,08,16,16,09,21.50
2015,08,16,16,10,21.50
2015,08,16,16,11,21.50
2015,08,16,16,12,21.50
2015,08,16,16,13,21.40
2015,08,16,16,14,21.40
2015,08,16,16,15,21.30
2015,08,16,16,16,21.30
2015,08,16,16,17,21.30
2015,08,16,16,18,21.30
2015,08,16,16,19,21.20
2015,08,16,16,20,21.20
2015,08,16,16,21,21.20
2015,08,16,16,22,21.20
2015,08,16,16,23,21.30
2015,08,16,16,24,21.30
2015,08,16,16,25,21.30
2015,08,16,16,26,21.40
2015,08,16,16,27,21.40
2015,08,16,16,28,21.40
2015,08,16,16,29,21.40
2015,08,16,16,30,21.40
2015,08,16,16,31,21.40
2015,08,16,16,32,21.40
2015,08,16,16,33,21.40
2015,08,16,16,34,21.50
2015,08,16,16,35,21.50
2015,08,16,16,36,21.60
2015,08,16,16,37,21.70
2015,08,16,16,38,21.70
2015,08,16,16,39,21.70
2015,08,16,16,40,21.70
2015,08,16,16,41,21.70
2015,08,16,16,42,21.70
2015,08,16,16,43,21.70
2015,08,16,16,44,21.80
2015,08,16,16,45,21.80
2015,08,16,16,46,21.80
2015,08,16,16,47,21.80
2015,08,16,16,48,21.80
2015,08,16,16,49,21.80
2015,08,16,16,50,21.80
2015,08,16,16,51,21.70
2015,08,16,16,52,21.70
2015,08,16,16,53,21.70
2015,08,16,16,54,21.70
2015,08,16,16,55,21.70
2015,08,16,16,56,21.70
2015,08,16,16,57,21.70
2015,08,16,16,58,21.70
2015,08,16,16,59,21.70
2015,08,16,17,00,21.70
2015,08,16,17,01,21.70
2015,08,16,17,02,21.70
2015,08,16,17,03,21.70
2015,08,16,17,04,21.70
2015,08,16,17,05,21.70
2015,08,16,17,06,21.70
2015,08,16,17,07,21.70
2015,08,16,17,08,21.70
2015,08,16,17,09,21.70
2015,08,16,17,10,21.70
2015,08,16,17,11,21.70
2015,08,16,17,12,21.70
2015,08,16,17,13,21.70
2015,08,16,17,14,21.70
2015,08,16,17,15,21.70
2015,08,16,17,16,21.60
2015,08,16,17,17,21.60
2015,08,16,17,18,21.60
2015,08,16,17,19,21.60